Weather in Bogolyubovka

Russia / Primorsky Krai     45°29′46″N   134°26′47″E
temp.,
°C
wind,
m/s
gust,
m/s
humid.,
%
clouds,
%
prec.,
mm/h
press.,
hPa
HPBL,
m
30 november, tue
tue3001:00−12se119870 0.0 102721
04:00−11se1194100 0.0 102529
07:00−9e1191100 0.0 102323
10:00−7ene0174100 0.0 1021136
13:00−4n2364100 0.1 1017375
16:00−6n2595100 2.3 1012272
19:00−7n3696100 4.9 1009309
22:00−8n3796100 14.5 1005377
1 december, wed
wed101:00−9n41095100 10.4 1001451
04:00−11nnw4896100 18.9 998575
07:00−12nw41096100 3.1 998866
10:00−12nw41095100 5.8 998920
13:00−11wnw61394100 2.4 9971062
16:00−13wnw61494100 3.8 998806
19:00−14wnw61394100 1.5 999907
22:00−14wnw61394100 2.8 10001008
2 december, thu
thu201:00−14wnw61586100 0.5 10021247
04:00−15wnw6158090 0.6 10041198
07:00−17wsw36885 0.0 1006112
10:00−16s25935 0.0 1008154
13:00−9sw378358 0.0 1005638
16:00−8s3990100 0.0 1004600
19:00−9se3691100 0.0 1002169
22:00−4ssw41595100 1.3 10011271
3 december, fri
fri301:00−3wsw41094100 1.8 1002893
04:00−5wsw4108697 2.3 1003935
07:00−9sw279696 0.1 1005288
10:00−10wnw3892100 0.4 1009504
13:00−11wnw478197 0.1 1012760
16:00−11wsw2690100 0.3 1013833
19:00−18sse1110085 0.1 101710
22:00−19sse1110098 0.3 101816
4 december, sat
sat401:00−21sse1110098 0.1 101911
04:00−22se11100100 0.2 102014
07:00−24se1110099 0.1 10219
10:00−19sw119991 0.1 102269
13:00−15wnw3484100 0.0 1022811
16:00−16wnw368998 0.1 1024857
19:00−25se1110094 0.0 10279
22:00−27se1110084 0.1 102910